STARLINK-36269, 67472

Orbit data source: Space-Track

STARLINK-36269, 67472 is a payload satellite owned by SpaceX/Seattle (US) in LEO that was launched on Wed, 14 Jan 2026 UTC via an FALCON 9 launch vehicle from the Air Force Eastern Test Range (AFETR). Payload-class satellites include a variety of spacecraft equipped with specific instruments for various scientific and technological missions. These include communications satellites like Starlink; space stations such as the ISS; scientific satellites like the Hubble; Earth observation satellites from companies like Planet Labs, Umbra, and HawkEye 360; GPS; miniature CubeSats for education and research; and military/defense satellites.

Loading next visibility...
Identifier
67472, 2026-008AD
Orbit
LEO
Country
Flag of USUS
Related business
Manufacturer
SpaceX/Seattle
Mission
Operational spacecraft
Bus & Motor
STARLINK V2MO, Unknown motor
Mass
575 kg wet, ~530 kg dry
Launch date (UTC)
2026-01-14 (2 months ago)
Launch vehicle
FALCON 9
Launch site
Air Force Eastern Test Range (AFETR)
Object type
Payload
Rocket body
Debris
Shape & HBR
Unknown shape, 17.7 m
Radar Cross Section
RCS unknown

Expand to show TLE details & history
Last TLE update: 18 hours ago

TLE from 18 hours ago
0 STARLINK-36269
1 67472U 26008AD  26062.50309667  .00026752  00000-0  97784-3 0  9994
2 67472  42.9964 240.3549 0000986 246.7047 113.3701 15.27589870  8626
Epoch: 2026-03-03T12:04Z
TLE epoch observation values (Epoch: 2026-03-03T12:04:27.552Z)
Latitude
Longitude
-102.04112°
Altitude
483.063 km
Speed
7.626 km/s
True Right ascension
16h 01m 25s
True Declination
0° 00' 00"
Sunlit
Object was in daylight at epoch
Visualization orbit readout
Latitude
Unknown
Longitude
Unknown
Altitude
Unknown
Speed
Unknown
Apparent Right ascension
Unknown
Apparent Declination
Unknown
Sunlit
N/A
Visualization observer readout
Local Sidereal Time
10:02:08
Azimuth
Unknown
Elevation
Unknown
Doppler factor
Unknown
Orbital elements
Apogee altitude
485.642 km
Perigee altitude
484.289 km
Semi-major axis
6,863.102 km
Eccentricity
0.0001
Inclination
42.9964°
RAAN
240.3549°
Arg. of periapsis
246.7047°
True anomaly
113.38047°
Mean anomaly
113.3701°
Eccentric anomaly
113.37529°
Mean motion
3.81735 °/min
Orbital period
94.31 mins
BSTAR
0.00097784
Loading maneuver chart data...
Computing Atmospheric mass density...
Loading historical data...
Loading historical data...
Loading historical data...
Loading historical data...
Loading historical data...
Loading historical data...
Loading historical data...

Documentation

Showing up to 5 results
|